Galena, Illinois, United States (61036)
Lat: 42.42N, Lon: 90.43W
Wx Zone: ILZ001
Local Info
Past Weather Observations for Today

NOTE: This archive is for the closest National Weather Service station to Galena. Information may differ from the station used for current weather conditions.

Click here for Long-term Archive

Time Weather Temperature Dewpoint Humidity Pressure Winds Precip Visibility
20:53
Clear
57°F / 14°C 52°F / 11°C 82% 30.12 in
(1020 mb)
SE 8.1 mph
(SE 13 kph)
- 10SM
19:53
Clear
59°F / 15°C 52°F / 11°C 77% 30.12 in
(1020 mb)
ESE 8.1 mph
(ESE 13 kph)
- 10SM
18:53
Clear
59°F / 15°C 54°F / 12°C 82% 30.09 in
(1019 mb)
ESE 6.9 mph
(ESE 11 kph)
- 10SM
17:53
Clear
63°F / 17°C 54°F / 12°C 73% 30.09 in
(1019 mb)
ESE 6.9 mph
(ESE 11 kph)
- 10SM
16:53
Clear
68°F / 20°C 52°F / 11°C 56% 30.09 in
(1019 mb)
ESE 8.1 mph
(ESE 13 kph)
- 10SM
15:53
Partly Cloudy
70°F / 21°C 52°F / 11°C 53% 30.09 in
(1019 mb)
ESE 10.4 mph
(ESE 17 kph)
- 10SM
14:53
Mostly Cloudy
70°F / 21°C 54°F / 12°C 57% 30.09 in
(1019 mb)
SE 8.1 mph
(SE 13 kph)
- 10SM
13:53
Partly Cloudy
70°F / 21°C 54°F / 12°C 57% 30.09 in
(1019 mb)
SSE 9.2 mph
(SSE 15 kph)
- 10SM
12:53
Partly Cloudy
68°F / 20°C 54°F / 12°C 60% 30.12 in
(1020 mb)
SSE 5.8 mph
(SSE 9 kph)
- 10SM
11:53
Partly Cloudy
66°F / 19°C 54°F / 12°C 64% 30.12 in
(1020 mb)
SE 9.2 mph
(SE 15 kph)
- 10SM
10:53
Clear
66°F / 19°C 54°F / 12°C 64% 30.15 in
(1021 mb)
SE 6.9 mph
(SE 11 kph)
- 10SM
09:53
Clear
63°F / 17°C 55°F / 13°C 77% 30.15 in
(1021 mb)
NE 4.6 mph
(NE 7 kph)
- 10SM
08:53
Clear
Fog And Mist
55°F / 13°C 54°F / 12°C 94% 30.15 in
(1021 mb)
NE 5.8 mph
(NE 9 kph)
- 6SM
08:00
Clear
Fog And Mist
54°F / 12°C 52°F / 11°C 94% 30.15 in
(1021 mb)
NE 6.9 mph
(NE 11 kph)
- 5SM
07:55
Mostly Cloudy
Fog And Mist
52°F / 11°C 52°F / 11°C 100% 30.15 in
(1021 mb)
NE 6.9 mph
(NE 11 kph)
- 2SM
07:53
Obscured
Fog
52°F / 11°C 52°F / 11°C 100% 30.15 in
(1021 mb)
NE 5.8 mph
(NE 9 kph)
- 1/2SM
07:47
Obscured
Fog
52°F / 11°C 52°F / 11°C 100% 30.12 in
(1020 mb)
Calm - 1/2SM
07:40
Obscured
Fog
52°F / 11°C 52°F / 11°C 100% 30.12 in
(1020 mb)
NE 8.1 mph
(NE 13 kph)
- M1/4SM
07:30
Obscured
Fog
52°F / 11°C 50°F / 10°C 94% 30.12 in
(1020 mb)
NE 9.2 mph
(NE 15 kph)
- M1/4SM
07:13
Partly Cloudy
Fog And Mist
55°F / 13°C 54°F / 12°C 94% 30.12 in
(1020 mb)
NE 10.4 mph
(NE 17 kph)
- 1 1/2SM
06:53
Clear
Fog And Mist
54°F / 12°C 52°F / 11°C 94% 30.12 in
(1020 mb)
Calm - 4SM
06:25
Partly Cloudy
Fog
48°F / 9°C 48°F / 9°C 100% 30.09 in
(1019 mb)
Calm - 3SM
06:00
Clear
Fog
46°F / 8°C 46°F / 8°C 100% 30.09 in
(1019 mb)
Calm - 3SM
05:53
Clear
Fog And Mist
48°F / 9°C 46°F / 8°C 94% 30.09 in
(1019 mb)
Calm - 1 1/4SM
04:53
Clear
Fog And Mist
46°F / 8°C 46°F / 8°C 100% 30.06 in
(1018 mb)
Calm - 3SM
04:51
Clear
Fog And Mist
46°F / 8°C 46°F / 8°C 100% 30.06 in
(1018 mb)
Calm - 3SM
04:50
Clear
Fog And Mist
46°F / 8°C 46°F / 8°C 100% 30.06 in
(1018 mb)
Calm - 2 1/2SM
04:32
Clear
Fog And Mist
48°F / 9°C 48°F / 9°C 100% 30.06 in
(1018 mb)
Calm - 3/4SM
03:53
Clear
Fog And Mist
50°F / 10°C 48°F / 9°C 94% 30.06 in
(1018 mb)
NE 4.6 mph
(NE 7 kph)
- 5SM
02:53
Mostly Cloudy
50°F / 10°C 48°F / 9°C 94% 30.06 in
(1018 mb)
Calm - 10SM
01:53
Partly Cloudy
48°F / 9°C 46°F / 8°C 94% 30.06 in
(1018 mb)
Calm - 9SM
00:53
Clear
48°F / 9°C 46°F / 8°C 94% 30.06 in
(1018 mb)
Calm - 10SM
Time Weather Temperature Dewpoint Humidity Pressure Winds Precip Visibility


Weather for websites

WeatherForYou.com, LLC is not responsible for any damages or problems caused by this service. Current weather conditions are obtained from the closest station including government and personal stations which may have varying degrees of accuracy. Weather forecasts are derived from the NOAA NDFD. Like all things, this site belongs to Jesus Christ... He just trusts me to maintain it. If you have any questions or comments email webmaster@weatherforyou.com

Copyright © 2014, WeatherForYou.com LLC. All rights reserved.